• Join FlightAware (Why Join?)
  • Login
  • US Flag GB Flag 
23:47 EST


 

Airport Tracker/Info


-or-


 

Live Flight TrackerFlight Track Log ✈ VRT51 ✈ 21-Aug-2013 ✈ KLIT - KBNA

Flight Track Log - Related Links

Times and Time Zones

All times are in EDT time to prevent confusion due to time zone crossing. See the VRT51 flight status page for this flight to view local times or setup timezone preferences in your user account.

Time Position Orientation Groundspeed Altitude Reporting Facility
EDT Latitude Longitude Course Direction KTS MPH feet Rate Location/Type
22:32 34.6867 -92.2311 162° South 197 227 2,300  Level Memphis Center
22:33 34.6669 -92.1600 109° East 249 287 5,600 3,344 Climbing Memphis Center
22:34 34.6892 -92.0494 76° East 278 320 9,600 3,554 Climbing Memphis Center
22:35 34.7072 -91.9436 78° East 295 339 13,300 3,983 Climbing Memphis Center
22:36 34.7336 -91.8306 74° East 319 367 17,500 4,050 Climbing Memphis Center
22:37 34.7642 -91.7272 70° East 351 404 21,400 3,900 Climbing Memphis Center
22:38 34.7967 -91.6139 71° East 356 410 25,300 3,500 Climbing Memphis Center
22:39 34.8269 -91.4981 72° East 356 410 28,400 2,450 Climbing Memphis Center
22:40 34.8636 -91.3669 71° East 361 415 30,200 1,714 Climbing Memphis Center
22:41 34.8978 -91.2358 72° East 387 445 31,800 1,388 Climbing Memphis Center
22:42 34.9342 -91.0942 73° East 414 476 33,000 600 Climbing Memphis Center
22:43 34.9747 -90.9450 72° East 437 503 33,000  Level Memphis Center
22:44 35.0150 -90.7933 72° East 469 540 33,000  Level Memphis Center
22:45 35.0550 -90.6361 73° East 480 552 33,000  Level Memphis Center
22:46 35.0950 -90.4814 72° East 480 552 33,000  Level Memphis Center
22:47 35.1347 -90.3267 73° East 480 552 33,000  Level Memphis Center
22:48 35.1719 -90.1869 72° East 480 552 33,000  Level Memphis Center
22:49 35.2114 -90.0317 73° East 479 551 33,000  Level Memphis Center
22:50 35.2506 -89.8764 73° East 474 545 33,000  Level Memphis Center
22:51 35.2872 -89.7236 74° East 474 545 33,000  Level Memphis Center
22:52 35.3300 -89.5528 73° East 474 545 33,000  Level Memphis Center
22:53 35.3667 -89.3972 74° East 479 551 33,000  Level Memphis Center
22:54 35.4050 -89.2414 73° East 479 551 33,000  Level Memphis Center
22:55 35.4431 -89.0853 73° East 479 551 33,000  Level Memphis Center
22:56 35.4789 -88.9317 74° East 479 551 33,000  Level Memphis Center
22:57 35.5144 -88.7781 74° East 479 551 33,000 -151 Level Memphis Center
22:58 35.5522 -88.6217 73° East 474 545 32,700 -1,450 Descending Memphis Center
22:59 35.5894 -88.4628 74° East 479 551 30,100 -2,529 Descending Memphis Center
23:00 35.6286 -88.3086 73° East 479 551 27,600 -2,500 Descending Memphis Center
23:01 35.6656 -88.1569 73° East 474 545 25,100 -2,571 Descending Memphis Center
23:02 35.6986 -88.0153 74° East 450 518 22,500 -2,550 Descending Memphis Center
23:03 35.7311 -87.8686 75° East 443 510 20,000 -2,450 Descending Memphis Center
23:04 35.7636 -87.7294 74° East 436 502 17,600 -2,400 Descending Memphis Center
23:05 35.7961 -87.5931 74° East 422 486 15,200 -1,300 Descending Memphis Center
23:06 35.8308 -87.4689 71° East 397 457 15,000 -200 Descending Memphis Center
23:07 35.8742 -87.3572 64° Northeast 364 419 14,800 -1,100 Descending Memphis Center
23:08 35.9111 -87.2508 67° East 336 387 12,800 -1,850 Descending Memphis Center
23:09 35.9444 -87.1622 65° Northeast 318 366 11,100 -1,900 Descending Memphis Center
23:10 35.9794 -87.0736 64° Northeast 292 336 9,000 -2,050 Descending Memphis Center
23:11 36.0128 -86.9878 64° Northeast 281 323 7,000 -1,500 Descending Memphis Center
23:12 36.0481 -86.9092 61° Northeast 273 314 6,000 -700 Descending Memphis Center
23:13 36.0792 -86.8333 63° Northeast 248 285 5,600 -900 Descending Memphis Center
23:14 36.1300 -86.7875 36° Northeast 233 268 4,200 -1,289 Descending Memphis Center
23:15 36.1878 -86.7619 20° North 215 247 3,000 -1,000 Descending Memphis Center
23:16 36.2006 -86.6997 76° East 172 198 2,200 -655 Descending Memphis Center
23:17 36.1867 -86.6514 110° East 153 176 1,700 -600 Descending Memphis Center
23:18 36.1553 -86.6528 182° South 101 116 1,000 -550 Descending Memphis Center
23:19 36.1300 -86.6464 168° South 94 108 600 11,405 Descending Memphis Center
23:20 36.1028 -86.6425 173° South 94 108 24,000 23,016 Climbing Memphis Center
23:22 36.1167 -86.6667 202° Southwest  Level FlightAware Approximate
23:29 36.1245 -86.6782 202° Southwest  Level Estimated
23:30 36.1245 -86.6782 202° Southwest  Level Estimated
23:31 36.1245 -86.6782 202° Southwest  Level Estimated
23:32 36.1245 -86.6782 202° Southwest  Level Estimated
23:33 36.1245 -86.6782 202° Southwest  Level Estimated
23:34 36.1245 -86.6782 202° Southwest  Level Estimated
23:35 36.1245 -86.6782 202° Southwest  Level Estimated